STARLINK-2241 (48586 NORAD) Tracking and Keplerian Element Data

This shows tracking and keplerian element data for the satellite.

Feedback or suggestion? Click here.




ElementValue
Catalog48586
NameSTARLINK-2241
Epoch Orbit358
Epoch Day214.91667824
Epoch Year2021
RAAN122.4068
Inclination53.0542
Eccentricity0.0001903
Argument of Perigee76.8834
Mean Anonmoly356.994
Mean Motion15.0641905
Decay Rate-0.000329
L11 48586U 21041AK 21214.91667824 -.00032900 00000-0 -21988-2 0 9998
L22 48586 53.0542 122.4068 0001903 76.8834 356.9940 15.06419050 3587

Live tracking and technical data element details for STARLINK-2241 (NORAD 48586). STARLINK-2241 can be tracked NOW for your location showing map with azimuth and elevation plus other details from your city location.

Track the satellite on the map from your city or location and see movement details for azimuth, elevation, latitude, longitude, range, height, and movement on the map or in text.







IsCatalogInMostPopularTable: catalog: 48586, numindb: 20
Update: records affected: 1



GetName: 48586 STARLINK-2241

Hit Count: updated at: Tue, 03 Aug 2021 21:10:22 GMT